Regional Weather Roundup
Issued by NWS

Home | Current Version | Previous Version | Graphics & Text | Print | Product List | Glossary On
Versions: 1 2 3 4 5 6 7 8 9 10 11 12 13 14 15 16 17 18 19 20 21 22 23 24 25 26 27 28 29 30 31 32 33 34 35 36 37 38 39 40 41 42 43 44 45 46 47 48 49 50
478
ASUS44 KJAN 220803
RWRMS

MISSISSIPPI HOURLY WEATHER ROUNDUP
NATIONAL WEATHER SERVICE JACKSON MS
200 AM CST MON DEC 22 2014

NOTE: "FAIR: INDICATES FEW OR NO CLOUDS BELOW 12,000 FEET WITH NO
SIGNIFICANT WEATHER AND/OR OBSTRUCTIONS TO VISIBILITY.

MSZ001>002-007>008-010>013-018>021-025>028-034>036-220900-
NORTHWEST MISSISSIPPI

CITY           SKY/WX    TMP DP  RH WIND       PRES   REMARKS
CLARKSDALE     CLOUDY    46  46 100 SE9       29.89F
CLEVELAND      CLOUDY    48  48 100 S9        29.89S FOG
GREENWOOD      CLOUDY    51  48  89 S7        29.92R
GREENVILLE     CLOUDY    50  48  93 SE13      29.88F FOG
GRENADA        CLOUDY    46  46 100 SE3       29.92S
OLIVE BRANCH   CLOUDY    43  43 100 S13       29.91S
OXFORD         CLOUDY    45  45 100 SE6       29.93F FOG
TUNICA         CLOUDY    46  45  93 SE13      29.90F FOG
$$

MSZ003>006-009-014>017-022>024-029>033-037>039-220900-
NORTHEAST MISSISSIPPI

CITY           SKY/WX    TMP DP  RH WIND       PRES   REMARKS
COLUMBUS AFB   CLOUDY    49  47  93 E6        29.94F
CORINTH        CLOUDY    48  43  81 SE6       29.93S
GOLDN TRIANGLE CLOUDY    50  46  87 SE9       29.93F
STARKVILLE     CLOUDY    50  46  87 SE7       29.94S FOG
TUPELO         CLOUDY    49  45  86 S6        29.93F
$$

MSZ040-058-220900-
CENTRAL MISSISSIPPI

CITY           SKY/WX    TMP DP  RH WIND       PRES   REMARKS
JACKSON INTL   CLOUDY    51  50  96 SE10      29.90F FOG
JACKSON HAWKNS CLOUDY    51  49  92 SE10      29.90F FOG
MERIDIAN KEY   CLOUDY    51  49  92 SE7       29.94F
MERIDIAN NAS   CLOUDY    50  48  93 SE7       29.95F FOG
RAYMOND        CLOUDY    52  46  82 SE8       29.90F HAZE
VICKSBURG      CLOUDY    52  49  89 SE10      29.90S
$$

MSZ059>079-220900-
SOUTH MISSISSIPPI

CITY           SKY/WX    TMP DP  RH WIND       PRES   REMARKS
HATTIESBURG    CLOUDY    53  52  96 E5        29.92F FOG
MCCOMB         FOG       52  52 100 SE6       29.88F VSB 1/2
NATCHEZ        CLOUDY    52  48  87 S7        29.90R
PINE BELT      CLOUDY    52  48  87 E3        29.93F
$$

MSZ080>082-220900-
COASTAL MISSISSIPPI

CITY           SKY/WX    TMP DP  RH WIND       PRES   REMARKS
BILOXI         CLOUDY    57  57 100 E6        29.92S
PASCAGOULA     CLOUDY    57  55  93 NE5       29.93F
GULFPORT       CLOUDY    56  55  97 E5        29.91F FOG
$$



USA.gov is the U.S. government's official web portal to all federal, state and local government web resources and services.